DECAYED

SL-4 R/B, 62031 (Decayed)

Orbit data source: Space-Track

SL-4 R/B, 62031 was space debris in LEO originally from a launch on Thu, 21 Nov 2024 UTC launched from the Tyuratam Missile And Space Complex (TTMTR). Debris objects in space refer to the collection of defunct objects orbiting the Earth. Examples of debris include non-operational satellites, rocket bodies, and fragments generated from explosions, collisions, or faulty payload assembly.

Not visible in the next 10 days
SL-4 R/B details
Identifier
62031, 2024-215B
Orbit
Decayed
Last TLE update3 weeks ago
Origin
Flag of CISRVSN RF (CIS)
ManufacturerTsSKB-Progress
MissionDecayed spacecraft
Bus & MotorBLOK-I, RD-0980
Mass~2,350 kg wet, 2,350 kg dry
Launch date (UTC)
2024-11-21 (3 weeks ago)
Launch vehicleUnknown
Launch site
Tyuratam Missile And Space Complex (TTMTR)
Object type
Payload
Rocket body
Debris
Shape & HBRUnknown
Radar Cross SectionLarge (>1 m²)

Expand to show TLE details & history

TLE from 3 weeks ago
0 SL-4 R/B
1 62031U 24215B   24328.24398021  .11007155  12532-4  40279-3 0  9996
2 62031  51.6438 246.9269 0011875  76.8603  51.8089 16.43183118   288
Epoch: 2024-11-23T05:51Z
Definitive object data (Epoch: 2024-11-23T05:51:19.89Z)
Latitude37.81752°
Longitude-121.24422°
Altitude155.505 km
Speed7.821 km/s
True Right ascension01h 57m 09s
True Declination37° 38' 09"
Sunlit
Object was in full shadow at TLE epoch
Visualization observer readout
Observer readout values are unavailable because the object's trajectory could not be propagated. This is usually caused when the trajectory data is faulty or the object's orbit has decayed.
Visualization observer readout
Observer readout values are unavailable because the object's trajectory could not be propagated. This is usually caused when the trajectory data is faulty or the object's orbit has decayed.
Orbital elements
Apogee altitude165.637 km
Perigee altitude150.114 km
Semi-major axis6,536.013 km
Eccentricity0.0011875
Inclination51.6438°
RAAN246.9269°
Arg. of periapsis76.8603°
True anomaly51.91595°
Mean anomaly51.8089°
Eccentric anomaly51.86241°
Mean motion4.10746 °/min
BSTAR0.00040279
Orbital period87.65 mins
Loading maneuver chart data...
Loading historical data...
Loading historical data...
Loading historical data...
Loading historical data...
Loading historical data...
Loading historical data...
Loading historical data...
Other satellites on launch #215 in the year 2024 (2024-11-21 UTC)

SL-4 R/B Visibility forecast

Observer location: undefined°, undefined

This satellite is decayed
Span
Click to sort rows by Start time (UTC) header in descending order
Start Az.
Max El. time (UTC)
Max El. Az.
Max El.
End time (UTC)
End Az.
|